Time,TemperatureF,DewpointF,PressureIn,WindDirection,WindDirectionDegrees,WindSpeedMPH,WindSpeedGustMPH,Humidity,HourlyPrecipIn,Conditions,Clouds,dailyrainin,SoftwareType,DateUTC
2013-02-25 00:00:00,46.5,16.8,30.19,ENE,68,0.0,3.0,30,0.00,,---,0.00,VWS V14.01,2013-02-25 08:00:00,
2013-02-25 00:15:00,45.4,15.8,30.19,ENE,68,1.0,4.0,30,0.00,,---,0.00,VWS V14.01,2013-02-25 08:15:00,
2013-02-25 00:30:00,45.4,15.8,30.19,NE,45,3.0,7.0,30,0.00,,---,0.00,VWS V14.01,2013-02-25 08:30:00,
2013-02-25 00:45:00,45.5,15.9,30.19,NE,45,3.0,7.0,30,0.00,,---,0.00,VWS V14.01,2013-02-25 08:45:00,
2013-02-25 01:00:00,45.6,16.0,30.19,NE,45,2.0,7.0,30,0.00,,---,0.00,VWS V14.01,2013-02-25 09:00:00,
2013-02-25 01:15:00,45.0,15.4,30.19,NE,45,1.0,4.0,30,0.00,,---,0.00,VWS V14.01,2013-02-25 09:15:00,
2013-02-25 01:30:00,44.9,16.1,30.18,NE,45,2.0,7.0,31,0.00,,---,0.00,VWS V14.01,2013-02-25 09:30:00,
2013-02-25 01:45:00,44.7,15.2,30.18,ENE,68,1.0,6.0,30,0.00,,---,0.00,VWS V14.01,2013-02-25 09:45:00,
2013-02-25 02:00:00,47.1,13.1,30.18,East,90,2.0,9.0,25,0.00,,---,0.00,VWS V14.01,2013-02-25 10:00:00,
2013-02-25 02:15:00,47.9,16.4,30.17,ENE,68,1.0,6.0,28,0.00,,---,0.00,VWS V14.01,2013-02-25 10:15:00,
2013-02-25 02:30:00,46.5,14.3,30.17,ENE,68,0.0,3.0,27,0.00,,---,0.00,VWS V14.01,2013-02-25 10:30:00,
2013-02-25 02:45:00,46.8,15.4,30.17,ENE,68,1.0,4.0,28,0.00,,---,0.00,VWS V14.01,2013-02-25 10:45:00,
2013-02-25 03:00:00,46.2,16.5,30.17,ENE,68,1.0,3.0,30,0.00,,---,0.00,VWS V14.01,2013-02-25 11:00:00,
2013-02-25 03:15:00,45.2,17.8,30.17,SW,225,0.0,5.0,33,0.00,,---,0.00,VWS V14.01,2013-02-25 11:15:00,
2013-02-25 03:30:00,44.3,17.7,30.18,SW,225,1.0,4.0,34,0.00,,---,0.00,VWS V14.01,2013-02-25 11:30:00,
2013-02-25 03:45:00,43.6,17.1,30.18,NE,45,2.0,4.0,34,0.00,,---,0.00,VWS V14.01,2013-02-25 11:45:00,
2013-02-25 04:00:00,43.3,17.5,30.18,ENE,68,2.0,4.0,35,0.00,,---,0.00,VWS V14.01,2013-02-25 12:00:00,
2013-02-25 04:15:00,43.1,18.0,30.18,NE,45,1.0,4.0,36,0.00,,---,0.00,VWS V14.01,2013-02-25 12:15:00,
2013-02-25 04:30:00,43.4,17.6,30.18,NE,45,2.0,7.0,35,0.00,,---,0.00,VWS V14.01,2013-02-25 12:30:00,
2013-02-25 04:45:00,43.3,18.8,30.19,NE,45,1.0,3.0,37,0.00,,---,0.00,VWS V14.01,2013-02-25 12:45:00,
2013-02-25 05:00:00,42.8,19.0,30.19,NE,45,1.0,5.0,38,0.00,,---,0.00,VWS V14.01,2013-02-25 13:00:00,
2013-02-25 05:15:00,42.9,18.4,30.18,ENE,68,2.0,6.0,37,0.00,,---,0.00,VWS V14.01,2013-02-25 13:15:00,
2013-02-25 05:30:00,43.3,18.8,30.19,NE,45,2.0,5.0,37,0.00,,---,0.00,VWS V14.01,2013-02-25 13:30:00,
2013-02-25 05:45:00,43.0,19.1,30.19,NE,45,1.0,3.0,38,0.00,,---,0.00,VWS V14.01,2013-02-25 13:45:00,
2013-02-25 06:00:00,42.6,18.8,30.19,NE,45,1.0,4.0,38,0.00,,---,0.00,VWS V14.01,2013-02-25 14:00:00,
2013-02-25 06:15:00,42.4,19.8,30.20,NE,45,1.0,3.0,40,0.00,,---,0.00,VWS V14.01,2013-02-25 14:15:00,
2013-02-25 06:30:00,42.2,20.8,30.19,NE,45,2.0,5.0,42,0.00,,---,0.00,VWS V14.01,2013-02-25 14:30:00,
2013-02-25 06:45:00,42.5,21.0,30.19,NE,45,3.0,5.0,42,0.00,,---,0.00,VWS V14.01,2013-02-25 14:45:00,
2013-02-25 07:00:00,42.6,21.1,30.20,NE,45,1.0,3.0,42,0.00,,---,0.00,VWS V14.01,2013-02-25 15:00:00,
2013-02-25 07:15:00,43.1,21.6,30.20,NE,45,1.0,4.0,42,0.00,,---,0.00,VWS V14.01,2013-02-25 15:15:00,
2013-02-25 07:30:00,44.5,21.7,30.20,NE,45,1.0,3.0,40,0.00,,---,0.00,VWS V14.01,2013-02-25 15:30:00,
2013-02-25 07:45:00,47.7,22.1,30.19,NE,45,2.0,5.0,36,0.00,,---,0.00,VWS V14.01,2013-02-25 15:45:00,
2013-02-25 08:00:00,52.1,24.6,30.20,NE,45,1.0,4.0,34,0.00,,---,0.00,VWS V14.01,2013-02-25 16:00:00,
2013-02-25 08:15:00,56.2,26.0,30.19,NE,45,1.0,3.0,31,0.00,,---,0.00,VWS V14.01,2013-02-25 16:15:00,
2013-02-25 08:30:00,59.8,23.9,30.18,NE,45,0.0,3.0,25,0.00,,---,0.00,VWS V14.01,2013-02-25 16:30:00,
2013-02-25 08:45:00,63.6,25.1,30.17,NE,45,0.0,0.0,23,0.00,,---,0.00,VWS V14.01,2013-02-25 16:45:00,
2013-02-25 09:00:00,64.5,25.9,30.17,NE,45,0.0,2.0,23,0.00,,---,0.00,VWS V14.01,2013-02-25 17:00:00,
2013-02-25 09:15:00,65.0,25.3,30.17,NE,45,0.0,3.0,22,0.00,,---,0.00,VWS V14.01,2013-02-25 17:15:00,
2013-02-25 09:30:00,65.2,27.5,30.17,NE,45,0.0,3.0,24,0.00,,---,0.00,VWS V14.01,2013-02-25 17:30:00,
2013-02-25 09:45:00,64.7,28.1,30.17,WSW,248,2.0,7.0,25,0.00,,---,0.00,VWS V14.01,2013-02-25 17:45:00,
2013-02-25 10:00:00,63.8,30.1,30.17,SW,225,3.0,8.0,28,0.00,,---,0.00,VWS V14.01,2013-02-25 18:00:00,
2013-02-25 10:15:00,64.3,27.8,30.17,WSW,248,2.0,8.0,25,0.00,,---,0.00,VWS V14.01,2013-02-25 18:15:00,
2013-02-25 10:30:00,64.0,26.5,30.18,WSW,248,3.0,7.0,24,0.00,,---,0.00,VWS V14.01,2013-02-25 18:30:00,
2013-02-25 10:45:00,64.1,25.6,30.17,WSW,248,3.0,9.0,23,0.00,,---,0.00,VWS V14.01,2013-02-25 18:45:00,
2013-02-25 11:00:00,64.6,29.0,30.17,West,270,3.0,10.0,26,0.00,,---,0.00,VWS V14.01,2013-02-25 19:00:00,
2013-02-25 11:15:00,65.5,26.8,30.16,WSW,248,3.0,7.0,23,0.00,,---,0.00,VWS V14.01,2013-02-25 19:15:00,
2013-02-25 11:30:00,66.6,28.7,30.15,West,270,3.0,9.0,24,0.00,,---,0.00,VWS V14.01,2013-02-25 19:30:00,
2013-02-25 11:45:00,67.6,28.5,30.14,WSW,248,3.0,8.0,23,0.00,,---,0.00,VWS V14.01,2013-02-25 19:45:00,
2013-02-25 12:00:00,68.3,28.0,30.14,WSW,248,3.0,9.0,22,0.00,,---,0.00,VWS V14.01,2013-02-25 20:00:00,
2013-02-25 12:15:00,67.9,22.9,30.13,WSW,248,2.0,7.0,18,0.00,,---,0.00,VWS V14.01,2013-02-25 20:15:00,
2013-02-25 12:30:00,67.0,26.9,30.13,SW,225,4.0,11.0,22,0.00,,---,0.00,VWS V14.01,2013-02-25 20:30:00,
2013-02-25 12:45:00,66.4,28.5,30.12,West,270,4.0,10.0,24,0.00,,---,0.00,VWS V14.01,2013-02-25 20:45:00,
2013-02-25 13:00:00,66.3,27.4,30.11,WNW,292,3.0,11.0,23,0.00,,---,0.00,VWS V14.01,2013-02-25 21:00:00,
2013-02-25 13:15:00,66.1,26.2,30.11,West,270,4.0,10.0,22,0.00,,---,0.00,VWS V14.01,2013-02-25 21:15:00,
2013-02-25 13:30:00,66.4,28.5,30.11,West,270,4.0,11.0,24,0.00,,---,0.00,VWS V14.01,2013-02-25 21:30:00,
2013-02-25 13:45:00,66.8,26.8,30.10,WSW,248,5.0,12.0,22,0.00,,---,0.00,VWS V14.01,2013-02-25 21:45:00,
2013-02-25 14:00:00,66.2,28.4,30.10,West,270,4.0,11.0,24,0.00,,---,0.00,VWS V14.01,2013-02-25 22:00:00,
2013-02-25 14:15:00,66.3,30.4,30.10,WSW,248,4.0,10.0,26,0.00,,---,0.00,VWS V14.01,2013-02-25 22:15:00,
2013-02-25 14:30:00,65.4,28.7,30.10,West,270,4.0,9.0,25,0.00,,---,0.00,VWS V14.01,2013-02-25 22:30:00,
2013-02-25 14:45:00,65.4,26.7,30.10,West,270,5.0,11.0,23,0.00,,---,0.00,VWS V14.01,2013-02-25 22:45:00,
2013-02-25 15:00:00,65.2,29.5,30.10,WSW,248,3.0,9.0,26,0.00,,---,0.00,VWS V14.01,2013-02-25 23:00:00,
2013-02-25 15:15:00,65.0,29.3,30.10,WNW,292,3.0,9.0,26,0.00,,---,0.00,VWS V14.01,2013-02-25 23:15:00,
2013-02-25 15:30:00,65.3,29.6,30.09,WSW,248,3.0,9.0,26,0.00,,---,0.00,VWS V14.01,2013-02-25 23:30:00,
2013-02-25 15:45:00,64.1,28.5,30.09,WSW,248,4.0,11.0,26,0.00,,---,0.00,VWS V14.01,2013-02-25 23:45:00,
2013-02-25 16:00:00,62.9,28.4,30.09,WSW,248,4.0,11.0,27,0.00,,---,0.00,VWS V14.01,2013-02-26 00:00:00,
2013-02-25 16:15:00,62.5,27.2,30.09,WSW,248,3.0,7.0,26,0.00,,---,0.00,VWS V14.01,2013-02-26 00:15:00,
2013-02-25 16:30:00,62.0,27.7,30.08,SW,225,4.0,9.0,27,0.00,,---,0.00,VWS V14.01,2013-02-26 00:30:00,
2013-02-25 16:45:00,61.3,28.8,30.08,SW,225,3.0,7.0,29,0.00,,---,0.00,VWS V14.01,2013-02-26 00:45:00,
2013-02-25 17:00:00,60.7,28.3,30.08,West,270,2.0,6.0,29,0.00,,---,0.00,VWS V14.01,2013-02-26 01:00:00,
2013-02-25 17:15:00,59.8,29.1,30.08,SW,225,2.0,7.0,31,0.00,,---,0.00,VWS V14.01,2013-02-26 01:15:00,
2013-02-25 17:30:00,58.8,29.8,30.08,WSW,248,1.0,6.0,33,0.00,,---,0.00,VWS V14.01,2013-02-26 01:30:00,
2013-02-25 17:45:00,57.7,28.8,30.08,WSW,248,0.0,3.0,33,0.00,,---,0.00,VWS V14.01,2013-02-26 01:45:00,
2013-02-25 18:00:00,56.6,27.9,30.08,West,270,0.0,4.0,33,0.00,,---,0.00,VWS V14.01,2013-02-26 02:00:00,
2013-02-25 18:15:00,55.7,29.2,30.08,West,270,0.0,0.0,36,0.00,,---,0.00,VWS V14.01,2013-02-26 02:15:00,
2013-02-25 18:30:00,54.8,29.7,30.08,North,0,0.0,3.0,38,0.00,,---,0.00,VWS V14.01,2013-02-26 02:30:00,
2013-02-25 18:45:00,53.6,29.9,30.08,NE,45,2.0,5.0,40,0.00,,---,0.00,VWS V14.01,2013-02-26 02:45:00,
2013-02-25 19:00:00,52.4,27.6,30.08,NE,45,1.0,4.0,38,0.00,,---,0.00,VWS V14.01,2013-02-26 03:00:00,
2013-02-25 19:15:00,51.7,26.9,30.08,NE,45,2.0,5.0,38,0.00,,---,0.00,VWS V14.01,2013-02-26 03:15:00,
2013-02-25 19:30:00,50.9,26.8,30.09,NE,45,1.0,4.0,39,0.00,,---,0.00,VWS V14.01,2013-02-26 03:30:00,
2013-02-25 19:45:00,50.2,26.8,30.09,NE,45,1.0,5.0,40,0.00,,---,0.00,VWS V14.01,2013-02-26 03:45:00,
2013-02-25 20:00:00,49.5,26.2,30.10,NE,45,1.0,4.0,40,0.00,,---,0.00,VWS V14.01,2013-02-26 04:00:00,
2013-02-25 20:15:00,48.8,26.2,30.09,NE,45,1.0,4.0,41,0.00,,---,0.00,VWS V14.01,2013-02-26 04:15:00,
2013-02-25 20:30:00,48.2,26.2,30.09,NE,45,2.0,5.0,42,0.00,,---,0.00,VWS V14.01,2013-02-26 04:30:00,
2013-02-25 20:45:00,47.8,25.3,30.09,NE,45,2.0,6.0,41,0.00,,---,0.00,VWS V14.01,2013-02-26 04:45:00,
2013-02-25 21:00:00,47.3,26.0,30.08,NE,45,1.0,5.0,43,0.00,,---,0.00,VWS V14.01,2013-02-26 05:00:00,
2013-02-25 21:15:00,46.8,25.5,30.09,NE,45,3.0,7.0,43,0.00,,---,0.00,VWS V14.01,2013-02-26 05:15:00,
2013-02-25 21:30:00,46.4,25.1,30.09,NE,45,2.0,5.0,43,0.00,,---,0.00,VWS V14.01,2013-02-26 05:30:00,
2013-02-25 21:45:00,46.0,25.3,30.09,ENE,68,2.0,5.0,44,0.00,,---,0.00,VWS V14.01,2013-02-26 05:45:00,
2013-02-25 22:00:00,45.4,24.8,30.09,ENE,68,0.0,3.0,44,0.00,,---,0.00,VWS V14.01,2013-02-26 06:00:00,
2013-02-25 22:15:00,45.3,23.6,30.09,ENE,68,2.0,4.0,42,0.00,,---,0.00,VWS V14.01,2013-02-26 06:15:00,
2013-02-25 22:30:00,45.1,23.4,30.08,ENE,68,2.0,5.0,42,0.00,,---,0.00,VWS V14.01,2013-02-26 06:30:00,
2013-02-25 22:45:00,45.0,22.7,30.08,NE,45,2.0,5.0,41,0.00,,---,0.00,VWS V14.01,2013-02-26 06:45:00,
2013-02-25 23:00:00,44.8,23.1,30.09,NE,45,1.0,4.0,42,0.00,,---,0.00,VWS V14.01,2013-02-26 07:00:00,
2013-02-25 23:15:00,44.4,23.3,30.08,NE,45,1.0,3.0,43,0.00,,---,0.00,VWS V14.01,2013-02-26 07:15:00,
2013-02-25 23:30:00,44.1,23.6,30.07,NE,45,1.0,3.0,44,0.00,,---,0.00,VWS V14.01,2013-02-26 07:30:00,
2013-02-25 23:45:00,43.7,23.8,30.07,NE,45,2.0,5.0,45,0.00,,---,0.00,VWS V14.01,2013-02-26 07:45:00,